Regional Weather Roundup
Issued by NWS Green Bay, WI

Home | Current Version | Previous Version | Text Only | Print | Product List | Glossary On
Versions: 1 2 3 4 5 6 7 8 9 10 11 12 13 14 15 16 17 18 19 20 21 22 23 24 25 26 27 28 29 30 31 32 33 34 35 36 37 38 39 40 41 42 43 44 45 46 47 48 49 50
000
ASUS43 KGRB 171610
RWRGRB

NORTH-CENTRAL AND NORTHEAST WISCONSIN REGIONAL WEATHER ROUNDUP
NATIONAL WEATHER SERVICE GREEN BAY WI
1000 AM CST WED DEC 17 2014

WIZ005-009-010>012-018-019-171700-
NORTH CENTRAL WISCONSIN

CITY           SKY/WX    TMP DP  RH WIND       PRES   REMARKS
IRONWOOD       CLOUDY    18  16  93 W13       30.16R WCI   4
MANITOWISH WTR LGT SNOW  15  12  87 NW12      30.15R WCI   2
ARBOR VITAE    LGT SNOW  18  13  82 NW8       30.15R WCI   8
EAGLE RIVER    FLURRIES  17  13  84 W12       30.13R WCI   5
LAND O LAKES   LGT SNOW  19  16  86 W6        30.12R
RHINELANDER    LGT SNOW  16  10  77 W10       30.14R WCI   4
PHILLIPS       FLURRIES  15   9  77 NW5       30.19R WCI   7
ANTIGO         CLOUDY    17  12  80 W14       30.15R WCI   3
TOMAHAWK       CLOUDY    17  11  77 NW9       30.18R WCI   5
MERRILL        FLURRIES  17  11  75 N9        30.19R WCI   6
$$

WIZ013-073-171700-
NORTHEAST WISCONSIN

CITY           SKY/WX    TMP DP  RH WIND       PRES   REMARKS
IRON MOUNTAIN  LGT SNOW  22  17  81 NW12      30.09R
MARINETTE      CLOUDY    25  14  63 NW8G17    30.13R
OCONTO         CLOUDY    23  16  74 W16       30.16R WCI  10
$$

WIZ017-030-035>037-045-171700-
CENTRAL WISCONSIN

CITY           SKY/WX    TMP DP  RH WIND       PRES   REMARKS
MEDFORD        LGT SNOW  15  10  78 N7        30.20R WCI   5
WAUSAU         CLOUDY    18   9  68 NW10      30.19R WCI   6
MOSINEE        FLURRIES  19  16  86 NW12      30.21R WCI   7
MARSHFIELD     CLOUDY    20  13  74 NW12      30.20R WCI   8
WISC RAPIDS    CLOUDY    21  13  71 NW10      30.23R WCI  10
STEVENS POINT  CLOUDY    19  11  69 NW10G16   30.21R WCI   8
WAUPACA        CLOUDY    25  15  65 W8G17     30.21S
SHAWANO        PTSUNNY   24  15  68 NW8       30.20R
CLINTONVILLE   CLOUDY    23  14  68 NW14      30.20R
$$

WIZ038-039-048-051-171700-
FOX VALLEY

CITY           SKY/WX    TMP DP  RH WIND       PRES   REMARKS
NWS GREEN BAY  CLOUDY    24  15  68 W18G24    30.18R
APPLETON       PTSUNNY   23  12  63 NW15      30.20R
OSHKOSH        CLOUDY    24  14  65 NW14      30.20R
FOND DU LAC    CLOUDY    24  15  68 NW12      30.20R
$$

WIZ022-050-052-171700-
EAST CENTRAL WISCONSIN

CITY           SKY/WX    TMP DP  RH WIND       PRES   REMARKS
STURGEON BAY   PTSUNNY   23  16  74 W17       30.14R WCI   9
MANITOWOC      FLURRIES  26  17  68 NW17      30.17S
SHEBOYGAN      CLOUDY    24  16  71 NW13G20   30.18R
$$

LMZ563-521-522-541>543-171700-
LAKESHORE

STATION/POSITION TIME  TEMP    WIND        PRES    VSBY  WAVE
                       AIR SEA DIR/SP/G                  HT/PER
                 (UTC) (F)     (DEG/KT/KT) (MB)    (MI)  (FT/S)
SHEBOYGAN LKSHOR 1600   25 35  300/ 12/ 16 1023.2R
KEWAUNEE LKSHORE 1600   25     290/ 12/ 19 1019.9S
ALGOMA MARINA    1600          310/  9/ 20   N/A
NORTHPORT PIER   1600   26     300/ 12/ 23 1019.0S
CHAMBERS ISLAND  1600   25     240/  6/ 16 1020.0S
MENOMINEE LKSHOR 1600   24     270/ 12/ 17 1020.9R
$$



USA.gov is the U.S. government's official web portal to all federal, state and local government web resources and services.